User: anonymous   Login
Location: Stonelick Lake State Park
(39.2170°N, 84.0850°W)
Time: 05:19:03
(UTC-05:00)
Language:

Abrixas rocket - Orbit

View from above orbital plane
View from above orbital plane
View from above satellite
View from above satellite

Ground track
Ground track

The orbit data is extracted from the following two-line orbital elements,

1 25723U 99022C   16037.17716543  .00011706  00000-0  24381-3 0  9998
2 25723  48.4193 282.4334 0013440 170.1384 331.7772 15.45852784929382
Epoch (UTC): 06 February 2016 04:15:07
Eccentricity: 0.0013440
inclination: 48.4193°
perigee height: 420 km
apogee height: 438 km
right ascension of ascending node: 282.4334°
argument of perigee: 170.1384°
revolutions per day: 15.45852784
mean anomaly at epoch: 331.7772°
orbit number at epoch: 92938

The dashed part of the orbit path shows where the satellite is in the earth's shadow,  

DLR